CZ-4B DEB (43660 NORAD) Tracking and Keplerian Element Data

This shows tracking and keplerian element data for the satellite.

Feedback or suggestion? Click here.




ElementValue
Catalog43660
NameCZ-4B DEB
Epoch Orbit270
Epoch Day317.44357492
Epoch Year2018
RAAN322.859
Inclination99.3247
Eccentricity0.0012942
Argument of Perigee277.8344
Mean Anonmoly82.1335
Mean Motion13.89707436
Decay Rate-1.8E-07
L11 43660U 18081D 18317.44357492 -.00000018 00000-0 22045-4 0 9992
L22 43660 99.3247 322.8590 0012942 277.8344 82.1335 13.89707436 2706

Live tracking and technical data element details for CZ-4B DEB (NORAD 43660). CZ-4B DEB can be tracked NOW for your location showing map with azimuth and elevation plus other details from your city location.

Track the satellite on the map from your city or location and see movement details for azimuth, elevation, latitude, longitude, range, height, and movement on the map or in text.







IsCatalogInMostPopularTable: catalog: 43660, numindb: 8
Update: records affected: 1



GetName: 43660 CZ-4B DEB

Hit Count: updated at: Thu, 15 Nov 2018 04:02:23 GMT